Theta_e
310 311 309 308 308 307 306 306 307 307 308 309 309 309 309 310 309 308 308 307 306 306 306 307 306 303 300 299 298 297 297 297 297 296 296 294 293 291 290 289 288 287 287 288 287 287 286 286 285 285 284 284 283 282 282 282 281 281 281 281 281 281 280 280 281 281 281 280 279 280 280 280 280 281 280 280 279 278 278 278 277 278 278 277 278 278
310 309 307 307 306 305 306 306 307 308 309 309 309 308 308 309 308 307 308 306 306 305 305 306 306 302 299 298 297 297 297 296 296 296 295 293 292 291 289 289 288 288 288 288 287 287 286 285 285 284 284 284 283 282 281 281 281 280 280 280 280 280 280 280 280 280 279 279 278 278 278 278 279 279 279 278 278 277 277 278 277 277 276 276 276 277
309 307 306 305 304 305 306 306 307 308 310 309 307 307 307 307 306 307 308 307 306 305 305 306 305 301 298 297 296 296 296 295 296 295 294 293 292 290 290 289 288 288 287 287 287 287 286 285 285 284 284 283 283 282 281 280 280 280 280 280 280 279 279 278 278 277 277 277 277 277 277 277 278 278 278 277 277 277 277 277 276 275 275 275 275 276
308 306 304 304 305 307 307 306 306 308 309 308 306 305 305 305 305 306 307 306 306 306 306 306 305 301 298 298 296 295 295 295 295 295 294 293 291 290 290 289 288 288 287 287 287 287 286 285 285 284 283 283 282 281 280 279 279 279 278 278 278 278 278 277 276 275 276 276 275 275 275 276 276 277 277 277 276 276 276 276 275 273 274 274 274 275
307 304 304 305 307 307 306 305 305 306 307 307 305 304 304 304 304 305 305 305 306 306 306 305 305 303 300 299 297 295 295 294 294 294 293 292 291 291 290 289 288 288 287 287 286 286 286 285 284 284 283 283 282 281 280 278 278 277 277 277 277 277 276 276 275 275 275 275 274 274 275 275 276 276 276 276 276 276 275 274 273 273 273 273 274 274
306 304 305 306 306 305 305 305 304 304 305 307 305 303 303 303 303 304 305 305 305 306 305 304 305 304 300 299 298 296 295 295 294 294 293 292 291 291 290 289 288 288 287 287 286 286 286 285 284 283 282 281 281 280 279 277 276 276 276 276 276 276 276 275 275 274 274 274 274 274 274 275 275 276 276 276 275 275 274 274 273 273 273 273 273 273
305 305 305 305 305 305 305 304 303 303 305 306 305 303 303 303 303 304 305 305 305 305 305 304 304 304 302 299 297 297 296 295 295 294 293 292 291 291 290 289 289 288 287 287 287 286 286 285 284 282 280 279 279 278 278 277 276 276 275 275 275 275 275 275 274 273 273 273 273 274 274 274 275 275 275 275 274 274 274 273 272 272 272 272 273 273
305 304 304 304 304 304 304 303 302 303 305 305 304 304 304 303 303 304 304 304 304 305 305 304 303 303 303 299 297 297 297 296 295 293 292 292 291 290 290 289 289 288 287 287 286 286 285 284 282 281 279 278 277 277 277 277 276 276 275 275 275 275 274 274 274 273 273 273 273 273 274 274 274 275 275 274 274 273 273 272 272 272 272 272 272 272
304 303 303 303 303 303 303 302 301 303 304 303 303 303 304 304 304 304 304 304 304 305 304 303 302 301 301 300 298 298 298 296 295 293 292 292 291 290 290 289 288 287 287 286 286 285 283 282 281 279 278 277 277 277 277 277 276 276 275 275 275 274 274 273 273 272 272 272 273 273 273 273 273 274 274 274 273 273 272 272 271 271 272 272 272 272
302 302 303 302 302 302 302 301 301 302 303 302 303 304 304 304 303 303 303 303 304 304 304 302 301 300 301 300 298 298 298 296 295 293 292 292 291 290 289 289 288 287 286 285 285 283 282 281 280 279 278 277 277 276 276 277 276 276 275 275 275 274 274 273 273 272 272 272 272 272 272 272 273 273 273 273 273 272 272 271 271 271 271 271 271 271
303 303 303 301 301 302 302 302 302 302 302 303 303 303 304 304 303 303 303 303 302 303 302 301 300 300 300 299 296 296 296 295 295 293 292 291 291 290 289 288 288 286 286 285 284 283 282 281 280 279 279 278 277 277 277 277 277 276 276 275 275 275 274 273 272 272 271 271 271 271 271 271 272 272 272 272 272 271 271 270 270 270 270 270 271 270
304 304 302 301 301 301 301 302 303 303 303 302 302 301 302 303 302 301 302 301 300 300 301 300 299 299 300 299 295 294 294 294 294 293 292 292 291 290 289 288 288 287 286 285 284 284 283 281 281 280 279 278 278 277 277 277 277 276 275 275 275 274 274 273 272 272 271 271 271 271 271 271 271 272 272 272 271 271 270 270 270 269 270 270 270 270
304 302 302 302 302 300 300 300 300 303 302 300 300 301 301 300 299 300 300 299 298 299 299 299 299 299 300 298 294 293 293 292 293 292 292 292 291 290 290 289 288 288 287 286 285 285 284 282 281 281 280 279 278 278 277 276 277 276 275 275 275 274 274 273 272 272 271 270 270 270 270 270 270 271 271 271 271 270 270 269 269 269 269 269 269 269
304 302 302 302 301 300 299 298 298 300 301 299 299 300 300 299 299 299 299 298 298 298 299 299 299 299 299 296 293 293 292 291 292 292 291 291 291 290 290 290 289 288 288 287 286 286 284 282 281 281 280 279 278 278 277 276 276 276 275 274 274 274 273 272 272 271 271 270 270 270 269 270 270 270 271 271 270 270 269 268 268 268 269 269 269 268
303 301 300 300 299 300 300 298 298 300 300 299 299 299 300 299 299 300 299 299 299 298 299 300 298 299 299 297 293 292 292 291 291 291 291 291 291 291 290 290 289 289 288 288 287 285 284 282 282 281 280 279 278 277 277 276 275 275 274 274 273 273 273 272 272 271 271 270 270 269 269 269 269 269 270 270 270 269 269 268 268 268 268 268 268 268
303 301 300 300 299 299 299 299 300 299 299 299 298 298 299 298 299 299 298 299 300 299 299 300 298 298 298 294 293 292 292 291 291 290 291 291 291 291 291 291 290 289 289 288 286 285 284 282 282 281 279 278 277 277 276 275 275 275 274 273 273 272 272 272 272 271 270 270 269 269 269 269 269 269 269 269 270 269 268 267 267 267 267 267 267 267
303 302 300 300 299 298 298 299 300 299 298 298 297 296 298 298 298 299 299 298 298 298 298 297 297 297 297 294 293 293 292 292 291 291 291 291 291 291 291 291 290 290 290 289 287 285 284 283 282 281 279 278 277 277 276 275 275 274 274 273 273 272 271 271 271 271 270 270 269 269 268 268 268 268 268 268 269 268 268 267 267 267 267 267 267 267
302 302 300 300 300 298 297 299 300 299 298 297 296 296 297 298 298 298 299 297 296 297 296 296 297 297 297 297 294 293 293 293 293 292 291 291 291 291 290 290 289 289 289 289 288 287 285 284 283 281 280 279 277 276 276 275 275 274 273 273 272 272 271 270 270 270 270 269 269 269 268 268 268 268 268 268 268 268 267 267 267 267 266 266 266 266
301 302 300 299 300 299 298 299 299 299 299 297 297 297 297 297 297 298 298 295 295 297 296 296 298 297 297 298 296 294 294 294 294 294 293 292 292 291 290 289 288 287 287 288 288 287 286 284 283 282 280 278 277 276 276 275 274 274 273 273 272 272 271 270 270 270 269 269 269 268 268 268 267 267 267 267 267 267 267 267 266 266 266 266 266 265
300 301 300 299 300 300 299 298 297 297 298 298 298 297 297 298 297 296 296 295 295 296 296 296 297 297 297 297 296 294 293 293 294 294 294 293 292 291 290 289 288 287 287 287 287 287 286 285 284 282 280 279 277 276 275 275 274 274 273 273 272 271 271 270 269 269 269 269 268 268 268 267 267 267 267 267 267 267 266 266 266 266 266 265 265 265
300 300 299 299 300 299 299 297 297 297 296 297 297 297 297 297 296 296 297 297 295 294 295 296 295 295 296 296 294 293 292 292 293 294 295 294 292 291 290 289 288 287 287 287 287 288 287 286 285 282 280 278 277 276 275 275 274 274 273 272 272 271 271 270 269 269 269 268 268 268 267 267 267 267 267 266 266 266 266 266 266 265 265 265 265 265
299 299 298 299 298 299 298 297 296 296 296 296 296 296 296 296 296 297 297 297 296 295 295 295 294 295 296 295 293 293 292 293 293 294 295 294 292 291 290 289 289 288 288 288 288 288 287 286 284 282 280 278 277 276 275 275 274 273 273 272 271 271 270 270 269 269 268 268 268 267 267 267 267 266 266 266 266 266 266 265 265 265 265 264 264 264
297 298 299 298 297 298 297 296 295 296 296 296 296 296 296 296 297 296 295 295 296 296 296 296 296 296 296 294 293 293 293 293 294 294 294 293 292 291 290 290 290 289 289 288 288 287 287 285 284 282 280 279 278 277 276 275 274 273 273 272 271 271 270 270 269 268 268 268 267 267 267 266 266 266 266 266 266 265 265 265 265 265 264 264 264 264
297 298 299 299 298 298 296 295 295 295 296 297 297 296 295 296 296 295 295 295 295 295 295 295 295 296 295 294 293 293 293 293 293 293 292 292 291 291 290 290 290 289 289 288 288 287 286 285 284 282 280 279 278 277 276 275 274 273 273 272 271 270 270 269 269 268 268 268 267 267 266 266 266 266 266 266 265 265 265 265 264 264 264 264 263 263
298 297 298 298 297 297 297 296 296 295 296 297 297 296 295 295 295 295 295 295 295 295 294 293 294 294 295 294 293 293 293 293 293 293 292 291 291 291 290 290 290 289 288 288 287 287 286 285 284 282 281 279 278 277 276 275 274 274 273 272 271 270 269 269 269 268 268 267 267 266 266 266 266 266 265 265 265 265 264 264 264 264 263 263 263 263
298 297 297 297 296 295 296 296 296 296 296 297 296 296 295 295 295 295 295 294 294 295 294 293 294 294 295 294 294 294 294 293 293 292 291 291 291 290 290 290 289 289 288 287 286 286 286 285 284 282 281 280 278 277 276 275 274 273 272 271 270 270 269 269 268 268 267 267 267 266 266 266 266 265 265 265 265 264 264 264 263 263 263 263 263 262
297 297 296 296 296 296 296 296 296 297 296 295 296 297 296 295 294 294 294 294 294 294 294 294 294 295 295 294 294 294 293 292 292 291 291 291 290 290 289 289 289 289 288 287 286 286 285 285 284 282 281 280 278 276 276 275 274 273 272 271 270 269 269 268 268 267 267 267 266 266 266 266 265 265 265 264 264 264 264 263 263 263 263 262 262 262
298 298 296 296 297 296 296 296 297 296 295 295 295 296 296 296 295 294 294 295 294 293 292 293 294 295 294 293 293 293 292 292 292 291 290 290 290 289 289 289 288 288 287 287 286 285 284 284 284 283 281 280 278 276 276 275 274 273 272 271 270 269 268 268 268 267 267 266 266 266 266 265 265 265 264 264 264 263 263 263 262 262 262 262 261 261
297 298 297 296 297 296 295 296 296 296 295 295 295 295 295 296 295 294 293 294 294 293 293 293 293 293 293 293 292 293 292 292 291 290 290 289 289 289 288 288 288 287 287 286 285 285 284 283 283 283 281 280 278 276 275 274 273 272 271 270 269 269 268 268 267 267 266 266 266 265 265 265 265 264 264 264 263 263 263 262 262 262 261 261 261 261
295 298 297 295 296 295 295 295 296 295 295 295 295 295 295 295 295 295 294 294 293 293 293 293 293 293 293 293 293 293 292 291 290 290 290 289 289 289 288 288 287 287 286 286 285 284 284 283 283 282 281 279 277 276 275 274 273 272 271 270 269 268 268 267 267 267 266 266 265 265 265 264 264 264 263 263 263 262 262 262 261 261 261 260 260 259
295 297 296 293 295 296 296 296 295 295 295 294 294 294 294 294 294 295 295 294 294 294 293 293 293 293 293 293 293 292 291 291 290 290 289 289 289 288 288 287 287 286 286 285 284 284 283 283 282 281 280 278 277 276 275 273 272 271 270 269 268 268 267 267 267 266 266 265 265 265 264 264 263 263 263 262 262 262 261 261 261 260 260 259 259 259
295 295 294 294 295 296 296 295 294 294 294 294 294 294 293 294 294 295 295 295 294 294 294 294 294 294 294 293 292 292 291 291 290 290 289 289 288 288 287 287 286 286 285 285 284 283 282 282 281 280 279 278 276 275 274 273 272 270 269 269 268 267 267 266 266 266 265 265 264 264 264 263 263 263 262 262 262 261 261 260 260 259 259 259 258 258
295 295 295 294 294 295 295 294 293 293 294 295 296 295 294 294 294 294 294 294 294 294 294 294 294 293 293 292 292 291 291 290 290 289 289 288 288 287 287 286 286 285 285 284 283 282 282 281 280 280 278 277 275 274 273 272 271 270 269 268 267 267 266 266 265 265 265 264 264 264 263 263 263 262 262 261 261 260 260 260 259 259 258 258 258 258
293 295 295 294 293 294 295 294 293 294 296 296 295 294 293 293 293 294 294 294 294 293 293 293 293 292 292 292 291 291 290 290 289 289 288 288 287 287 286 286 285 285 285 284 283 282 281 281 280 279 278 276 275 273 272 271 270 269 268 267 267 266 266 265 265 265 264 264 264 263 263 262 262 262 261 261 260 260 260 259 259 258 258 258 257 257
294 295 295 293 293 294 294 294 293 294 296 295 293 292 292 292 292 292 292 293 293 292 292 292 292 292 292 292 291 290 290 289 289 289 288 287 287 286 286 286 285 285 284 283 282 282 281 280 279 278 277 276 274 272 271 270 269 268 267 267 266 266 265 265 265 264 264 264 263 263 262 262 261 261 261 260 260 259 259 258 258 258 257 257 257 257
294 295 294 294 294 294 294 294 293 293 294 294 293 292 291 291 291 291 292 292 292 292 292 292 292 292 292 291 290 290 289 289 288 288 287 287 287 286 285 285 284 284 283 282 282 281 281 280 279 277 276 274 273 271 270 269 268 268 267 266 266 265 265 264 264 264 263 263 263 262 262 261 261 261 260 260 259 259 258 258 257 257 257 257 257 257
293 294 294 294 294 293 293 293 293 293 294 294 294 292 292 292 292 291 291 292 291 291 291 291 291 291 291 290 290 289 289 288 287 287 287 286 285 285 284 284 283 283 282 282 281 281 280 279 278 276 275 273 271 270 269 269 268 267 266 266 265 265 264 264 264 263 263 263 262 262 261 261 260 260 259 259 259 258 258 257 257 257 257 256 256 256
292 293 293 293 293 293 292 293 293 293 293 294 293 292 291 291 290 289 290 291 291 291 291 291 291 290 290 289 289 289 288 288 287 287 287 286 285 284 284 284 284 283 282 281 280 280 279 278 276 274 273 272 270 270 269 268 267 267 266 266 265 265 264 264 263 263 263 262 262 261 261 260 260 259 259 258 258 258 257 257 257 256 256 256 256 256
291 292 292 293 294 293 292 292 292 292 293 293 292 290 290 290 289 288 290 292 292 291 291 291 290 289 289 289 289 288 288 287 287 287 287 286 285 285 285 284 284 283 282 281 279 279 278 276 274 273 272 271 270 269 268 268 267 266 266 265 265 264 264 263 263 263 262 262 261 261 260 260 259 259 258 258 258 257 257 256 256 256 256 256 256 256
291 292 293 293 294 293 293 293 292 293 293 293 292 290 290 289 288 288 290 292 291 289 290 290 289 289 289 289 289 288 288 287 287 287 287 286 286 285 285 284 283 283 282 281 279 278 276 275 273 272 271 270 269 269 268 267 267 266 265 265 264 264 263 263 263 262 262 261 260 260 260 259 259 259 258 258 257 257 256 256 256 256 256 256 256 256
294 293 292 292 293 293 293 293 292 293 293 293 292 290 289 288 288 290 292 292 291 290 290 290 289 290 289 289 289 288 288 288 288 287 287 286 285 285 284 283 283 282 281 280 279 277 275 273 272 271 271 270 269 269 268 267 266 266 265 264 264 263 263 263 262 261 261 260 260 260 259 259 259 258 258 257 257 256 256 256 255 255 255 255 255 255
295 293 291 291 292 292 293 293 292 293 293 292 290 289 288 289 290 292 292 292 291 291 291 290 290 290 289 289 289 288 288 288 287 286 286 285 284 284 283 282 282 281 280 279 278 276 275 273 272 271 270 270 269 268 267 266 266 265 265 264 264 263 263 262 262 261 260 260 260 260 259 259 259 258 257 257 256 256 255 255 255 255 255 255 255 255
294 293 293 293 293 292 292 291 292 293 292 290 289 289 288 289 291 292 291 291 291 291 290 290 290 290 289 289 288 288 287 286 286 285 285 284 283 283 282 282 281 280 279 278 277 276 275 273 272 271 270 269 268 268 267 266 265 265 264 264 263 263 262 262 261 261 260 260 259 259 259 258 258 257 257 256 256 255 255 255 255 255 255 255 255 255
293 293 294 295 294 292 292 292 293 294 292 290 290 291 291 290 291 291 291 290 290 290 290 290 290 289 289 288 287 286 286 285 285 284 284 283 282 282 281 281 280 280 279 277 276 276 274 273 272 271 270 269 268 267 266 266 265 264 264 263 263 262 262 261 261 260 260 259 259 258 258 258 257 257 256 256 256 255 255 255 255 255 255 255 255 255
293 293 293 293 293 292 292 293 294 294 293 291 290 291 292 292 292 291 291 290 290 290 290 289 289 289 288 287 286 286 285 285 284 283 283 282 281 281 280 280 279 279 278 277 276 275 274 272 271 270 269 269 268 267 266 265 265 264 263 263 262 262 261 261 260 259 259 259 258 258 257 257 257 256 256 256 255 255 255 255 255 255 255 256 256 256
293 292 291 291 292 293 292 293 293 293 293 293 292 292 292 292 292 291 291 290 290 290 290 289 289 288 287 286 286 285 285 284 283 282 282 281 280 280 280 279 279 278 277 276 275 274 273 272 270 269 268 268 267 266 266 265 264 263 263 262 262 261 261 260 259 259 258 258 258 257 257 257 256 256 256 256 256 255 255 255 255 255 256 256 256 256
293 291 290 291 291 292 292 293 293 292 293 293 293 292 292 292 291 291 290 290 290 289 289 288 287 287 286 286 285 284 283 283 282 281 280 280 279 279 279 278 277 276 275 274 273 273 272 271 270 269 268 267 267 266 266 265 264 263 262 262 261 261 260 259 259 258 258 258 257 257 257 257 256 256 256 256 256 256 256 256 256 256 256 256 256 256
292 289 290 291 291 291 292 293 293 293 293 293 293 292 292 291 291 291 290 290 289 289 288 288 287 286 286 285 284 283 282 282 281 280 279 279 278 278 278 277 276 275 274 273 272 272 271 270 269 268 267 267 266 266 265 264 264 263 262 262 261 260 260 259 258 258 258 257 257 257 257 257 256 256 256 256 256 256 256 256 256 256 256 256 256 256
290 289 290 292 292 292 292 293 293 293 293 293 293 292 292 291 291 290 290 289 288 288 287 287 286 286 284 283 283 282 281 280 280 279 278 277 277 277 276 276 275 274 273 272 272 271 270 269 268 267 267 266 266 265 265 264 263 263 262 261 261 260 259 259 258 258 257 257 256 256 256 256 256 256 256 256 256 256 256 256 256 256 256 256 256 256
289 290 292 292 292 293 293 293 293 293 292 292 292 292 292 291 290 289 289 288 288 287 286 285 285 284 283 282 282 280 279 279 278 278 277 277 276 276 275 275 274 273 272 271 271 270 269 268 267 267 266 265 265 264 264 263 263 262 262 261 261 260 259 258 258 257 257 257 256 257 256 256 257 256 256 256 256 256 256 256 256 256 256 257 257 257
291 292 293 293 293 294 293 293 293 293 292 292 292 292 291 290 289 289 288 288 287 286 285 284 283 282 281 281 280 279 278 278 278 277 276 276 275 275 274 274 273 272 271 270 270 269 268 268 267 266 265 265 264 264 263 263 262 262 261 261 260 259 259 258 257 257 257 257 257 257 257 257 257 257 256 256 256 256 256 255 256 256 257 257 258 258
Wind_Speed
2 5 7 6 8 8 9 8 7 7 6 7 7 6 8 7 6 9 7 6 5 6 7 4 3 7 10 11 11 10 9 9 8 9 10 10 10 10 11 12 12 13 13 15 17 18 19 18 18 18 18 19 20 21 21 21 21 21 19 19 19 18 18 19 19 17 16 16 16 15 14 14 13 11 11 10 10 11 11 12 13 13 13 15 13 13
3 8 8 8 8 7 7 7 7 7 6 6 6 7 7 6 9 10 5 5 4 5 6 2 3 7 10 10 10 9 9 9 9 9 10 11 11 10 11 12 12 11 11 14 16 17 17 18 17 17 17 18 19 20 20 20 19 19 19 18 17 17 17 18 18 16 15 15 15 14 13 13 12 11 10 10 10 11 11 11 13 13 14 15 14 13
7 9 9 9 8 6 5 8 10 7 6 4 6 7 6 7 10 5 3 2 3 5 5 4 3 6 10 10 11 11 10 10 10 11 10 10 11 10 10 11 10 10 10 12 14 15 16 17 17 16 16 16 16 17 19 18 17 18 18 17 16 16 15 16 18 17 15 14 13 13 12 11 11 10 9 9 9 9 10 9 11 13 14 14 13 12
6 7 11 9 8 6 5 11 14 8 3 3 7 7 6 9 9 5 3 8 10 7 5 7 4 5 9 9 11 11 10 11 11 12 12 10 10 10 10 9 9 10 9 10 11 13 14 15 16 16 15 14 14 15 17 17 16 16 17 16 15 15 14 15 19 21 18 15 14 14 12 10 9 9 8 8 8 8 9 10 11 13 13 13 12 11
9 7 10 8 6 8 8 11 13 9 5 6 8 8 8 10 11 9 10 14 13 4 1 7 5 4 6 7 9 8 9 10 10 11 11 9 9 9 9 9 9 9 8 9 10 11 12 13 14 14 14 13 13 13 15 15 15 14 15 16 16 16 16 18 21 23 22 18 16 15 13 10 9 8 8 8 9 9 10 11 12 13 12 12 10 10
10 8 8 7 8 10 9 10 13 10 6 3 7 10 10 11 12 13 13 12 8 1 5 6 5 2 6 7 8 6 7 8 8 9 9 8 7 6 6 7 7 8 8 9 9 9 10 11 11 12 12 12 11 11 11 12 15 15 16 18 18 18 19 20 22 23 22 19 15 13 12 11 10 9 8 8 9 10 11 12 13 13 12 11 10 10
9 11 9 10 10 11 10 9 13 11 7 3 7 9 10 11 12 12 12 8 5 3 5 6 6 2 4 8 8 7 7 7 7 8 7 6 5 4 4 4 5 6 7 7 8 8 8 8 8 9 10 10 10 9 8 11 15 16 17 17 17 18 18 18 19 20 19 16 12 11 9 9 10 9 9 9 9 10 10 11 13 13 12 11 10 10
8 12 12 14 11 10 9 8 11 10 5 5 9 11 10 10 11 10 9 5 4 4 3 7 9 6 1 6 5 4 6 6 6 6 5 4 3 3 4 3 4 5 5 5 5 6 6 5 6 6 6 7 9 9 7 9 13 15 15 14 13 13 14 15 16 17 16 12 10 10 8 9 9 9 9 10 10 10 10 11 12 12 12 10 10 10
6 11 13 14 11 8 8 7 8 8 6 7 12 14 10 9 9 8 7 5 4 4 1 8 12 8 3 5 5 1 6 6 4 4 3 3 3 3 4 3 4 5 5 3 2 2 2 2 2 2 2 4 7 9 8 8 10 12 11 10 8 9 11 13 13 13 13 10 9 9 8 9 10 9 9 10 10 10 10 12 12 12 11 10 10 10
4 7 8 10 9 8 8 6 5 6 7 9 15 15 9 6 6 6 5 4 4 2 2 9 12 7 4 4 3 5 8 6 3 3 2 3 3 4 4 3 3 3 2 2 3 3 3 3 3 2 1 2 4 7 6 5 6 7 7 7 7 7 9 12 11 11 12 10 8 8 8 10 10 10 10 10 10 10 10 12 12 11 11 11 10 10
4 2 3 7 7 7 8 7 5 5 9 12 13 12 5 6 5 6 2 4 5 1 4 10 13 9 4 3 6 5 5 5 2 2 3 4 5 4 4 3 3 4 4 5 5 6 6 5 5 4 3 2 3 3 4 4 4 5 5 6 7 7 8 10 10 10 10 9 8 8 8 10 10 10 10 10 10 10 11 12 12 12 12 11 11 11
5 3 2 4 6 10 10 6 5 7 8 11 8 9 5 2 1 3 1 4 5 3 5 10 13 10 6 2 4 3 3 3 1 2 4 5 6 5 4 5 6 6 6 6 6 8 8 7 7 6 5 4 3 2 3 3 3 4 6 7 8 8 7 8 9 8 9 9 8 8 8 9 10 10 10 10 11 10 11 12 12 12 12 12 12 12
6 7 5 2 5 13 12 7 3 2 7 12 8 8 7 3 4 4 4 5 4 4 7 10 10 6 2 2 0 1 1 1 2 2 4 6 6 6 7 8 7 7 7 7 8 9 9 9 8 7 6 5 3 3 2 4 4 5 7 8 8 9 8 8 9 8 8 9 8 8 9 9 10 10 10 10 10 10 10 12 13 13 13 13 13 13
3 6 8 5 4 11 12 8 7 5 7 10 8 8 6 4 5 5 5 5 5 5 7 8 6 4 1 2 5 4 4 4 5 5 6 7 8 9 10 9 9 9 9 9 9 9 9 9 8 8 7 5 4 3 2 4 5 5 7 8 8 9 9 8 8 8 8 8 8 9 9 9 10 10 10 10 10 9 10 12 13 13 13 13 13 14
1 3 8 9 4 9 11 8 7 7 6 6 8 6 4 5 5 5 6 6 6 8 7 4 3 3 3 2 6 5 4 5 6 7 8 8 9 9 9 9 9 10 10 9 9 9 10 10 9 9 8 6 4 3 3 3 5 5 7 9 8 9 9 9 9 8 9 8 8 9 9 9 9 10 10 10 9 9 11 12 13 13 13 13 14 14
3 4 3 4 3 7 8 8 10 8 4 4 6 5 4 5 4 4 6 6 7 8 5 2 1 2 2 2 6 5 5 7 7 8 9 9 10 9 9 10 10 9 9 9 8 9 11 11 10 10 9 7 5 4 4 3 5 6 7 8 8 9 9 9 9 9 9 9 9 10 9 9 9 10 10 10 10 10 11 12 13 13 13 13 14 14
1 3 3 2 1 4 4 6 10 9 5 4 5 6 5 5 5 5 6 6 7 8 4 3 3 1 1 2 6 7 7 8 9 10 11 11 11 10 9 9 9 9 9 9 9 10 12 12 12 11 10 8 6 4 4 4 5 6 7 8 8 9 9 9 10 10 9 9 10 10 9 9 9 10 10 11 11 11 11 12 12 13 13 13 13 14
2 1 3 2 2 3 1 2 5 8 6 4 3 7 7 5 3 4 5 5 6 6 5 6 7 5 4 2 5 8 10 10 11 12 12 12 12 10 9 8 7 8 8 10 11 12 13 13 13 13 11 10 8 6 5 6 6 6 7 7 8 9 9 10 10 10 9 9 10 9 9 9 10 10 10 11 11 11 12 12 12 13 13 13 14 14
2 1 3 2 1 3 3 3 2 6 7 4 1 5 5 2 2 4 4 4 5 6 6 6 5 7 7 2 4 7 9 9 11 12 12 13 12 10 9 8 8 8 8 9 11 12 14 14 13 14 13 11 10 8 6 7 6 7 7 8 8 9 9 10 10 10 10 10 10 9 10 10 10 11 11 11 12 12 12 13 13 13 13 14 14 14
2 2 2 3 2 2 2 1 3 3 5 4 1 3 4 2 3 4 2 3 5 6 7 6 5 6 4 2 5 6 6 8 10 9 10 12 12 10 9 8 8 8 8 8 10 12 14 14 14 14 14 12 11 10 7 7 7 8 8 9 9 9 9 10 10 10 10 10 10 10 11 11 11 11 11 11 12 12 13 13 13 13 13 14 14 14
2 2 1 2 4 2 1 3 4 4 5 5 3 4 5 3 2 2 2 2 3 5 6 7 8 7 3 2 6 6 5 7 8 8 9 9 10 10 9 9 9 8 9 10 10 12 15 16 14 14 15 13 11 10 9 8 8 9 9 9 9 10 10 11 11 11 10 10 10 11 11 11 12 12 12 12 12 13 13 13 13 13 13 14 14 15
2 2 3 1 1 0 2 3 2 3 4 4 4 3 4 3 2 4 3 1 1 5 6 7 9 9 3 3 5 5 5 6 8 8 8 8 10 10 10 10 10 11 12 12 12 14 17 16 13 15 15 13 12 11 10 9 9 9 9 9 9 10 10 11 11 11 11 11 11 11 11 12 12 12 12 12 12 13 13 13 13 13 13 14 15 14
3 3 4 2 1 2 4 5 2 1 2 2 1 2 2 2 2 4 4 3 3 5 5 6 10 8 1 5 5 5 6 7 7 8 9 9 10 10 11 12 13 14 14 14 14 16 18 17 14 14 14 13 12 11 10 9 9 9 9 9 9 10 11 11 11 11 11 11 11 12 12 12 12 12 12 13 13 13 12 13 13 13 13 14 14 14
1 2 4 2 1 2 4 4 3 3 3 4 2 0 1 2 2 3 5 5 5 7 7 6 9 7 3 5 5 5 7 9 8 8 10 10 10 11 13 15 14 15 15 15 16 18 19 19 18 15 13 13 12 11 10 10 9 9 9 8 9 10 11 11 11 11 11 11 12 12 12 12 12 12 13 13 12 13 13 13 13 13 14 14 15 15
1 1 3 3 2 0 2 2 3 4 4 4 3 1 1 2 2 3 4 3 4 7 6 7 9 7 2 5 6 7 9 11 9 10 12 12 12 13 14 15 14 15 15 15 16 18 19 19 19 18 17 14 12 11 10 10 10 9 9 9 9 10 11 11 11 11 11 11 12 12 12 12 12 12 13 13 13 13 13 13 13 13 14 14 15 16
2 2 3 3 4 4 4 3 2 2 3 4 4 4 4 5 5 4 3 5 5 4 4 6 10 10 4 5 8 9 10 12 13 13 12 12 12 13 13 14 15 15 16 17 17 17 17 18 18 19 19 16 13 11 11 10 10 10 9 10 10 11 11 11 11 11 11 11 11 12 12 12 12 12 12 13 13 13 13 13 13 14 14 14 15 16
2 2 2 4 5 5 5 6 4 4 6 8 7 8 6 5 7 5 4 6 4 4 6 9 11 15 14 10 11 13 14 15 15 14 13 12 12 12 13 15 15 16 16 17 17 17 16 17 18 20 20 17 14 11 11 11 10 10 10 11 11 11 11 11 11 11 11 11 12 12 12 12 12 12 12 13 13 13 13 14 14 14 14 15 16 17
3 3 0 2 7 9 10 11 9 7 9 11 11 11 10 7 8 7 9 9 4 4 9 11 10 14 17 17 17 17 16 16 15 14 13 13 13 13 14 15 17 18 18 17 17 18 18 17 18 20 20 18 15 13 12 12 11 11 11 12 12 11 11 11 11 11 11 12 12 12 12 12 12 12 13 13 13 13 13 14 14 14 15 15 16 16
4 4 2 0 7 11 13 14 12 10 10 11 12 13 13 11 10 12 15 14 8 7 12 14 15 18 19 19 19 19 17 16 15 13 12 13 15 17 17 19 19 19 19 19 18 18 18 17 17 18 19 18 16 13 13 12 12 12 12 12 12 12 12 11 12 12 12 12 13 13 12 12 12 12 13 13 13 13 14 14 14 14 15 16 16 18
3 2 2 1 8 13 14 13 12 11 11 13 14 15 15 15 15 16 16 16 14 16 19 20 22 23 20 19 19 17 14 13 12 12 12 15 17 19 20 21 21 20 19 19 18 18 17 17 18 19 19 17 15 14 13 13 13 13 13 13 12 12 12 12 12 12 12 13 13 13 13 13 13 13 13 13 13 13 14 14 14 15 16 16 18 19
1 1 3 1 6 11 9 8 8 10 12 15 17 16 15 15 16 16 16 15 14 17 20 21 21 20 16 14 15 14 11 11 13 14 15 16 18 19 21 22 21 21 20 19 19 18 17 16 18 19 18 16 15 14 13 13 13 13 13 13 13 12 12 12 12 13 13 13 14 13 13 13 13 13 13 13 13 13 14 14 15 16 16 16 18 18
2 1 0 1 6 7 3 4 7 11 13 16 18 17 16 14 13 13 12 12 13 14 16 15 14 13 12 11 14 14 13 15 17 17 18 19 19 21 22 22 22 21 20 19 18 17 16 16 17 20 18 16 14 13 13 13 13 13 13 13 13 12 12 12 13 13 13 14 14 13 13 13 13 13 13 13 13 13 14 15 15 16 15 15 15 15
1 2 2 1 5 6 1 3 10 12 11 9 8 9 12 13 14 13 12 13 15 14 12 11 11 13 14 14 16 17 17 17 17 16 18 21 22 22 22 22 21 20 19 18 18 17 17 17 19 20 17 14 13 13 13 13 13 14 14 13 12 12 12 13 13 13 14 14 14 13 13 13 13 13 13 13 13 14 14 15 15 14 13 14 15 17
1 3 3 1 3 6 5 8 11 9 6 2 1 2 5 9 13 14 15 16 15 13 12 14 16 18 18 17 18 18 17 17 18 20 21 21 21 21 23 22 21 20 18 17 17 17 18 19 20 19 18 16 13 12 12 12 13 14 13 13 13 13 13 13 13 13 14 14 14 14 13 12 13 13 13 13 13 14 14 14 13 13 14 16 17 19
3 4 2 1 3 6 7 8 7 5 5 3 2 2 2 5 9 13 17 19 18 18 19 20 22 22 20 18 17 17 17 19 23 25 23 20 19 20 21 21 20 19 18 17 17 18 19 20 19 19 20 19 14 11 11 12 13 13 13 13 13 13 13 13 13 14 14 14 14 13 13 13 13 13 13 13 13 14 14 13 13 14 15 15 16 18
3 3 2 2 3 4 5 4 4 8 13 10 1 3 1 3 6 9 14 16 16 16 18 20 21 20 18 17 16 15 16 19 21 20 18 17 18 17 17 17 18 19 19 19 20 21 21 21 20 20 19 16 12 11 12 12 13 13 13 13 13 13 13 13 14 14 14 14 14 13 13 13 13 13 13 13 13 13 14 14 15 17 16 16 17 18
4 3 2 2 3 2 5 6 7 11 14 8 2 3 0 2 2 4 9 13 13 13 15 17 17 17 16 15 15 15 15 17 17 13 11 11 11 11 13 16 19 20 22 23 24 24 24 22 19 17 15 13 12 12 12 13 13 13 14 13 13 13 13 13 14 14 14 14 14 13 13 13 13 13 13 12 12 13 14 15 18 19 18 17 18 18
4 4 3 3 3 2 4 7 7 8 8 3 3 3 2 1 2 2 6 13 12 9 11 13 13 14 14 14 15 13 13 16 15 9 7 9 9 11 17 22 24 25 24 24 25 24 23 19 14 12 13 13 13 13 13 13 13 13 14 14 13 13 14 14 15 14 14 14 14 13 13 13 13 13 12 13 14 14 15 17 19 20 19 18 18 20
4 5 3 4 5 4 4 6 4 5 7 3 3 5 5 4 2 1 7 10 5 1 6 9 11 13 13 14 14 12 10 14 14 9 10 15 18 19 21 24 27 28 25 23 23 22 21 17 12 11 12 12 13 13 13 13 14 14 14 14 14 14 14 15 15 14 14 14 14 14 14 13 13 13 13 14 15 16 19 21 21 21 19 17 18 19
5 4 4 6 6 5 6 6 4 6 8 3 5 8 6 5 3 2 9 7 1 2 6 8 11 13 13 13 13 9 9 12 14 14 17 23 26 26 25 24 26 27 25 21 20 19 17 14 11 11 12 14 14 13 12 13 14 14 15 14 14 14 15 16 15 14 14 14 14 14 14 14 13 13 14 16 17 19 22 22 21 20 19 17 18 17
4 4 4 5 6 6 7 6 5 7 8 2 6 9 8 4 2 4 8 5 2 4 8 9 11 14 14 13 11 10 11 14 16 19 22 24 25 26 28 29 29 27 25 21 18 16 14 13 12 12 13 14 13 12 11 12 13 14 15 14 14 16 16 15 14 13 13 14 14 14 15 14 12 13 15 18 19 21 22 22 22 22 20 19 18 18
3 2 3 3 4 5 6 6 6 7 3 4 9 9 7 3 4 7 9 11 11 13 16 15 15 15 15 15 13 12 15 17 18 20 22 22 22 22 25 28 28 25 24 21 18 15 14 15 14 14 14 14 13 12 11 12 14 15 14 14 16 17 15 13 13 14 14 15 15 15 14 13 13 15 19 21 21 21 21 22 22 22 22 20 19 19
2 2 4 4 4 3 4 4 5 7 1 10 10 6 5 5 7 10 13 16 17 17 17 17 15 14 15 16 14 13 15 17 19 21 21 22 22 22 25 27 25 22 21 19 18 17 14 15 16 15 15 14 12 12 11 12 14 14 14 15 17 16 14 13 13 13 13 14 14 14 14 15 18 20 22 22 21 20 21 22 22 22 21 19 18 19
3 3 5 3 3 2 3 5 4 3 4 13 9 4 6 9 9 12 14 16 16 15 14 14 14 15 15 15 14 13 15 18 21 21 21 22 22 22 23 24 23 23 21 19 20 20 18 18 18 17 16 14 12 12 11 13 14 14 14 16 17 14 13 12 11 11 12 13 14 15 17 19 21 22 22 22 21 20 20 22 21 20 20 17 15 16
6 5 3 3 3 4 6 9 9 6 2 9 10 9 11 12 12 14 15 15 15 14 12 12 14 14 13 12 13 14 17 19 21 21 21 22 22 22 23 24 25 24 23 22 20 19 18 18 18 17 16 15 13 12 12 13 14 14 16 18 17 14 12 12 12 13 14 15 15 17 19 20 21 23 23 22 21 19 19 18 17 17 15 14 13 14
6 4 1 2 5 6 10 14 15 12 11 11 10 10 12 13 13 13 14 14 14 14 13 12 13 13 12 13 15 17 18 19 20 21 21 21 21 21 23 25 25 22 20 19 19 19 19 18 17 16 16 15 14 14 14 13 14 15 17 17 14 12 11 12 15 17 17 18 18 19 21 22 21 21 21 20 18 18 17 16 14 13 12 12 13 14
5 4 3 6 7 6 8 9 9 11 13 13 12 12 12 13 12 11 11 13 14 15 13 11 12 13 14 16 17 18 19 20 21 21 20 19 19 19 21 22 20 18 17 18 19 19 18 16 16 16 15 15 14 14 14 14 14 16 16 13 11 11 12 14 17 18 18 19 19 18 18 18 18 18 16 15 14 14 14 13 13 13 13 13 13 13
2 3 3 9 10 8 11 13 13 14 15 13 12 11 11 12 12 11 11 12 13 13 11 11 13 14 14 15 17 19 21 22 21 20 19 17 16 16 18 19 17 17 18 20 20 18 16 15 15 14 15 15 14 12 13 13 13 14 13 10 11 13 14 16 17 18 19 19 17 16 15 16 17 17 14 12 12 12 13 14 14 15 16 16 15 15
4 1 5 7 8 9 13 15 15 15 14 12 12 12 12 11 11 11 12 12 12 12 12 13 14 13 13 14 17 19 21 21 19 19 19 16 15 16 19 19 18 19 20 20 19 17 14 14 15 15 15 15 13 11 12 11 11 11 11 11 12 13 14 17 18 18 19 18 16 16 15 15 16 15 12 11 11 12 13 15 16 17 19 21 20 19
3 6 8 5 6 8 9 11 12 12 12 13 15 17 15 10 9 10 12 12 12 12 12 13 15 15 16 17 17 18 18 19 19 20 19 15 16 21 22 21 19 20 20 19 18 16 13 13 14 15 14 13 12 11 11 10 11 13 13 14 14 14 16 17 17 16 17 16 14 14 13 13 13 12 11 11 12 12 13 16 17 19 22 25 24 22
6 9 7 5 8 10 11 13 13 12 13 16 17 15 11 9 9 11 12 11 11 11 12 13 15 17 17 18 19 18 17 18 22 23 20 18 21 25 24 21 19 19 20 21 18 15 13 13 13 14 14 12 11 10 10 11 14 15 15 15 15 15 16 17 16 14 13 11 12 12 11 11 11 11 10 11 11 12 13 15 16 18 20 23 23 22
Wind_Direction
318 51 48 22 11 3 358 353 328 320 311 302 302 301 308 312 324 342 12 46 25 335 319 332 45 59 54 45 44 44 56 72 81 85 80 80 82 80 82 82 80 79 77 75 69 63 61 58 57 56 54 53 50 46 42 42 40 36 34 32 31 28 25 24 21 17 15 11 7 3 1 359 354 353 357 358 0 3 0 360 4 5 359 358 359 356
52 51 38 8 358 344 333 333 322 312 299 302 319 320 322 343 339 339 21 53 30 337 325 343 92 72 63 52 48 48 51 58 66 77 80 82 84 84 86 85 85 85 83 77 69 63 59 55 54 53 50 48 47 42 39 38 37 34 32 31 29 25 24 24 21 16 12 9 6 360 355 352 349 348 352 352 351 355 355 356 1 360 355 355 356 355
62 45 15 357 339 313 321 351 343 316 290 319 354 344 339 354 341 340 88 65 333 315 320 337 12 76 77 64 57 55 57 57 60 73 79 82 87 87 88 89 90 89 84 76 68 63 58 54 51 49 47 46 45 42 37 35 34 32 30 28 25 23 23 21 18 16 11 6 4 359 352 346 344 342 344 346 343 348 352 353 355 355 353 352 353 353
53 26 359 337 313 326 16 19 4 339 313 26 21 1 344 347 339 319 329 324 310 299 306 314 313 102 92 78 71 64 68 69 68 74 74 73 81 84 85 87 90 88 82 75 68 62 58 53 50 47 43 42 42 39 35 31 29 28 26 25 23 20 20 16 12 13 10 4 0 359 357 348 341 337 336 339 341 345 349 348 348 349 350 350 349 351
53 16 339 316 328 6 22 24 14 354 358 63 49 10 336 331 327 308 312 317 308 298 14 309 278 126 89 76 77 73 77 78 75 74 70 70 78 81 82 79 78 80 77 72 67 61 57 54 50 46 42 39 38 36 32 28 26 24 21 20 20 17 15 11 6 7 7 5 1 359 360 354 347 344 340 341 342 343 343 342 342 343 345 346 346 348
43 14 335 343 20 21 20 27 19 353 333 59 54 2 326 316 313 304 312 318 311 33 65 344 314 103 93 78 73 77 79 74 75 71 68 76 82 84 87 85 82 79 75 70 66 63 58 56 52 46 41 37 35 32 25 21 22 22 18 16 17 14 11 7 3 3 4 4 2 359 357 352 345 341 340 341 338 336 335 335 337 337 339 341 341 345
26 13 5 16 21 17 26 31 16 357 327 356 10 333 311 310 306 305 315 318 318 348 48 26 348 337 101 78 69 79 76 68 72 69 67 73 78 89 98 101 95 83 77 72 66 62 56 53 51 44 39 35 31 25 14 11 15 17 15 13 12 10 8 5 1 0 2 3 1 356 351 344 337 329 329 331 329 328 328 329 332 334 335 337 338 339
16 17 19 16 16 22 28 25 8 353 331 347 339 315 307 309 304 308 310 295 307 319 78 49 1 321 9 79 101 103 70 69 75 68 68 72 78 98 102 103 95 79 74 72 65 61 55 51 51 44 37 30 27 24 12 6 10 12 11 8 6 5 6 3 359 359 1 0 355 349 343 337 330 322 320 321 323 324 325 328 330 331 331 332 334 335
20 29 23 9 15 29 25 16 352 335 339 342 320 306 299 297 294 297 293 286 318 304 116 33 4 328 335 98 149 204 38 56 77 75 77 95 110 122 117 112 96 80 71 74 83 89 88 85 80 64 28 12 18 22 13 1 4 5 4 0 358 0 2 359 357 358 359 357 351 344 338 333 326 319 317 317 319 322 324 327 328 328 328 327 329 330
60 42 18 9 19 12 359 346 322 324 334 318 304 296 275 254 263 264 280 307 314 296 17 11 3 340 338 72 71 9 27 26 39 87 102 133 143 151 144 131 114 111 119 152 172 179 182 183 181 191 255 327 353 8 4 349 349 352 350 350 352 355 356 354 353 354 355 354 348 341 334 329 323 318 317 316 317 320 324 326 326 327 326 324 325 327
126 135 9 20 12 336 322 304 274 277 303 302 303 308 274 201 220 235 262 329 313 1 35 0 354 336 307 60 45 21 24 2 347 146 168 166 165 168 160 163 170 184 201 197 197 203 205 206 203 209 230 260 300 336 339 324 325 337 340 344 348 349 350 350 349 349 353 352 345 339 332 326 321 318 316 315 316 320 325 326 325 326 325 323 324 326
106 112 89 36 2 343 328 305 244 241 307 333 338 344 345 175 235 269 305 354 341 6 12 353 346 322 288 55 55 39 42 20 1 200 197 180 179 181 186 202 205 208 211 204 210 214 214 218 216 220 233 239 252 282 315 325 321 334 341 340 343 343 341 345 344 342 347 347 340 336 331 325 320 316 313 312 315 319 325 326 325 325 325 323 324 325
95 80 87 115 23 8 357 357 351 271 354 6 2 0 5 12 7 351 349 357 344 345 351 344 336 316 300 80 96 256 175 154 155 177 188 182 187 199 210 214 213 215 217 216 220 220 218 221 221 229 239 233 237 260 306 339 336 337 342 338 335 334 330 332 336 333 335 338 336 333 329 325 321 316 311 309 312 316 323 325 324 323 323 322 322 324
118 90 50 31 31 16 14 17 6 345 359 9 5 2 11 15 358 345 348 346 325 331 339 332 326 318 354 154 202 221 209 200 197 195 198 194 199 210 213 214 216 218 220 222 221 219 218 220 223 231 237 228 235 264 296 340 340 334 337 333 326 324 320 320 324 323 323 327 330 330 327 323 321 317 311 307 308 313 321 322 320 319 319 318 319 320
42 81 22 15 8 7 22 26 351 317 317 5 7 350 14 29 355 332 338 332 318 320 318 314 318 307 323 141 173 197 212 216 219 212 210 211 213 220 222 223 226 227 227 227 223 221 220 222 230 232 227 223 237 265 274 320 334 327 329 327 318 316 314 311 313 315 316 317 321 326 323 319 319 316 310 304 301 308 316 318 316 314 313 313 314 315
93 98 37 33 15 1 21 22 355 332 313 6 1 351 25 13 330 305 306 303 301 303 304 324 305 269 326 128 164 191 217 220 225 218 217 224 223 226 233 235 236 237 237 232 224 224 224 225 233 231 223 221 232 255 260 285 318 315 316 317 309 308 310 306 306 308 309 309 313 319 318 315 315 314 309 302 295 301 310 311 310 308 308 309 309 310
103 105 119 161 99 24 15 8 14 11 340 327 354 3 355 319 305 304 302 302 299 294 310 342 310 245 221 207 186 199 224 230 233 229 227 232 229 229 237 241 243 246 246 240 229 227 228 227 230 229 222 220 225 244 258 265 295 300 300 307 304 303 305 304 303 303 302 303 305 309 310 310 310 309 306 301 295 297 303 305 305 305 305 305 306 308
338 89 105 141 152 110 215 297 47 48 8 344 14 355 321 269 257 293 304 322 316 303 310 316 306 294 289 278 177 203 228 235 235 235 236 239 236 233 236 238 242 250 256 252 239 233 231 229 232 230 222 220 222 234 255 259 278 288 285 295 300 297 299 301 300 298 297 298 299 301 302 304 306 305 303 301 298 297 300 301 302 303 303 304 304 305
316 246 110 100 153 153 189 239 112 79 49 41 27 339 332 273 280 314 317 321 316 308 306 304 305 292 277 249 170 206 228 238 241 238 235 239 238 232 232 233 236 247 255 254 246 239 233 231 235 230 220 220 221 225 246 256 263 276 278 286 291 287 289 294 295 293 292 293 292 293 297 300 302 302 300 300 298 297 297 298 299 299 300 301 302 302
305 278 102 107 132 185 202 346 359 36 42 34 344 357 8 326 302 328 328 301 301 306 306 302 299 293 280 200 181 202 223 245 254 247 236 239 239 229 226 230 234 240 246 251 250 243 237 240 242 231 219 219 223 226 240 253 260 272 280 285 285 279 280 286 289 288 286 287 286 288 292 295 296 297 296 295 294 294 294 295 296 296 297 299 300 300
297 281 337 113 143 195 239 45 20 7 9 358 357 14 3 334 290 281 264 261 303 300 299 303 295 292 312 135 172 196 225 246 252 252 246 240 235 229 226 230 235 241 251 259 261 256 254 253 242 225 219 220 224 228 237 250 263 272 276 283 286 280 276 279 282 282 282 282 283 286 288 289 291 291 290 288 288 289 290 291 292 293 296 297 297 298
325 288 309 305 174 260 101 94 54 26 18 351 351 5 353 347 322 291 286 147 240 277 281 292 290 292 311 136 173 207 237 248 245 249 254 242 234 234 231 235 242 251 260 266 272 276 275 265 234 214 217 221 223 229 238 250 260 265 270 279 284 279 272 273 277 278 278 278 278 281 283 285 286 285 283 284 285 285 286 287 290 292 294 295 296 296
328 295 290 281 7 39 100 117 114 26 355 303 337 25 338 321 315 298 307 322 293 280 275 268 272 281 227 157 193 224 238 250 241 238 250 247 242 244 246 253 258 261 267 272 279 284 281 272 252 230 221 222 229 236 241 249 256 259 266 276 281 276 268 269 272 273 274 273 275 279 281 282 282 280 280 281 281 282 283 286 289 291 292 293 294 295
291 291 289 254 155 127 137 145 180 213 264 252 226 35 310 297 309 291 298 317 303 277 273 270 267 269 202 179 217 232 241 253 246 246 262 265 265 266 268 272 271 268 272 277 283 285 279 272 265 256 242 232 233 239 241 249 257 261 268 275 278 274 268 268 269 269 270 271 274 277 278 279 279 278 279 280 281 282 284 287 290 291 292 294 295 296
324 336 313 297 306 237 190 203 212 212 238 257 252 255 212 199 246 273 275 286 268 252 257 272 274 274 192 181 224 236 243 255 259 267 276 276 278 279 277 279 277 274 277 281 284 286 281 273 264 262 262 252 238 238 245 253 260 265 272 278 278 273 268 267 267 267 268 270 274 276 276 278 279 278 279 280 282 284 285 289 291 292 294 295 296 297
309 326 322 318 336 347 333 320 319 273 263 274 264 234 203 185 204 238 266 269 263 248 237 251 269 283 269 199 227 251 265 279 285 286 283 277 278 281 278 277 276 275 278 282 285 286 285 278 265 262 266 260 245 242 250 257 264 271 277 278 275 270 267 267 266 266 267 269 273 276 276 278 279 279 280 282 284 286 288 291 292 293 295 296 297 297
290 279 293 298 289 293 301 299 307 306 283 282 277 257 237 203 200 221 261 263 272 297 272 254 260 277 279 270 273 283 292 298 297 295 291 284 283 285 283 281 280 279 280 283 286 287 286 280 268 263 265 260 248 247 255 261 267 273 277 274 271 268 267 267 266 266 267 270 274 275 276 278 279 279 282 283 285 287 289 291 292 292 293 294 294 293
274 261 133 301 268 263 275 280 280 278 268 271 277 272 262 236 202 205 231 241 269 314 276 264 266 273 278 286 293 295 299 300 297 296 295 291 289 291 291 287 283 281 280 281 285 287 286 282 271 264 263 259 250 251 260 266 269 270 270 269 267 264 263 264 265 265 267 271 274 275 276 279 280 281 283 284 285 286 288 290 290 290 291 292 291 290
289 283 88 34 273 272 274 270 265 263 262 265 269 268 268 255 222 214 229 237 243 252 256 270 283 281 280 287 292 295 298 298 295 294 294 293 294 294 294 292 288 283 281 282 286 287 285 284 277 267 263 259 253 255 264 268 269 268 266 264 263 261 262 263 263 264 267 269 271 274 277 278 278 280 281 281 283 285 287 289 289 289 291 290 290 290
293 290 71 7 287 283 275 262 254 255 261 266 264 262 266 261 243 234 240 243 242 247 256 270 279 278 278 284 289 291 294 293 289 286 286 291 295 294 293 294 292 288 285 285 287 289 286 282 278 273 266 256 250 257 266 268 268 267 264 262 261 260 261 262 261 262 264 268 270 273 275 276 276 277 277 278 280 282 285 287 289 290 290 290 291 291
316 1 60 31 289 286 270 246 244 251 262 272 272 268 265 262 254 248 248 248 247 251 258 266 273 275 275 280 286 289 288 285 283 282 286 295 300 298 294 293 292 289 286 286 288 289 287 280 277 274 264 252 252 261 264 265 266 264 261 260 259 260 261 260 260 262 263 267 270 271 272 273 273 274 275 276 278 281 285 287 288 289 288 287 289 290
314 310 52 239 291 295 251 216 265 275 273 273 272 269 260 249 244 242 242 239 236 244 259 266 267 270 277 289 295 296 294 291 290 290 295 302 305 301 296 292 290 287 286 286 288 287 285 281 277 272 262 254 258 263 262 264 265 261 258 257 256 258 260 258 259 262 264 267 268 268 270 271 271 273 274 275 277 282 286 288 288 287 285 285 287 287
344 295 297 301 296 297 291 304 303 299 289 277 264 257 248 236 234 240 244 242 235 236 254 262 259 271 289 299 299 298 299 298 296 297 301 304 303 300 296 291 289 288 285 285 287 287 285 283 278 272 266 261 259 258 259 262 261 258 256 256 257 258 258 257 259 261 263 265 266 267 268 269 270 272 273 274 277 282 285 286 284 282 283 287 289 292
170 264 293 339 285 290 310 315 302 290 289 308 112 205 245 244 247 249 252 257 253 246 249 256 265 277 287 293 295 297 299 301 301 300 301 302 300 297 295 292 289 287 284 284 287 287 283 280 276 272 271 270 262 256 257 257 256 256 254 253 256 257 256 257 258 260 262 263 264 265 266 267 269 271 272 274 278 282 283 282 279 281 287 290 291 293
218 254 271 159 256 280 305 313 300 287 309 328 125 140 287 271 264 264 263 263 262 260 259 261 268 275 280 287 291 291 292 300 303 301 298 295 292 291 291 290 288 286 285 286 289 286 279 276 274 272 273 272 263 253 253 254 253 252 250 250 252 252 252 256 257 258 260 262 262 263 264 267 268 268 272 276 278 280 280 278 279 286 290 289 288 289
256 279 283 252 249 268 295 299 277 288 302 304 241 120 48 261 261 274 273 263 254 256 261 263 266 273 280 285 286 284 289 299 301 298 293 288 286 287 289 290 292 291 288 288 288 283 277 275 276 274 272 265 255 248 249 251 250 248 248 249 250 251 252 254 256 257 259 260 259 260 263 264 265 268 271 273 274 276 278 280 286 291 292 290 288 288
248 265 288 274 242 259 293 287 273 283 294 297 159 132 194 259 277 303 289 280 271 262 261 263 268 276 280 282 285 287 294 299 297 294 297 296 289 289 292 294 296 294 287 285 284 280 276 275 273 267 261 251 246 246 248 251 248 245 248 248 248 251 251 252 255 256 256 257 258 260 262 261 263 266 267 268 269 271 274 279 286 291 292 289 286 284
230 247 281 286 247 236 287 294 295 294 298 313 126 140 120 76 44 29 290 288 286 264 249 251 261 273 278 283 288 290 298 301 295 293 315 313 297 292 296 297 298 295 287 283 284 281 276 269 257 246 246 246 244 245 248 250 246 242 246 247 247 249 250 251 254 254 255 257 258 260 261 259 261 263 264 265 265 268 276 282 286 289 290 286 283 285
229 245 250 255 257 250 262 280 284 274 287 314 137 155 137 110 86 349 283 289 304 230 233 242 257 272 279 284 287 289 296 296 290 295 315 312 303 301 301 299 297 297 290 283 282 280 273 263 248 238 240 241 244 248 249 248 244 241 243 246 247 249 249 250 252 253 256 259 259 260 259 258 260 261 261 264 266 272 282 288 289 290 288 283 281 285
217 230 220 231 251 244 240 259 261 255 272 286 137 148 139 114 102 295 290 297 35 175 239 244 260 275 280 282 284 281 278 282 288 300 311 311 306 303 300 297 296 297 293 286 286 284 271 255 241 237 239 241 247 253 253 247 243 240 241 244 247 247 248 248 250 254 258 259 259 259 259 259 259 257 258 264 271 279 286 289 290 289 285 280 280 282
208 221 223 238 259 250 239 255 262 259 271 275 130 134 135 136 179 268 290 313 338 278 279 273 273 283 288 285 282 279 278 284 292 301 308 309 304 300 299 298 297 296 292 290 294 289 268 252 244 239 240 247 251 254 252 247 243 241 241 243 245 247 249 250 252 255 258 259 258 258 260 260 256 255 262 270 277 282 286 289 290 289 286 282 281 281
214 203 215 235 251 242 241 258 271 271 266 120 122 131 144 193 269 279 296 311 308 302 305 302 292 293 295 289 283 283 288 293 298 302 305 304 301 299 300 300 298 295 292 290 292 285 262 255 256 250 247 250 252 252 249 243 241 242 240 241 247 250 252 252 254 258 260 259 258 257 257 256 256 262 271 278 282 284 286 289 289 289 287 283 281 282
192 207 238 226 208 225 243 247 278 297 163 131 132 138 169 214 272 291 300 306 304 303 307 305 300 301 300 295 290 287 291 297 301 302 302 301 302 302 302 301 298 294 292 289 289 288 274 261 260 259 258 256 251 250 248 242 243 241 237 243 252 255 254 253 255 257 258 257 255 254 253 258 266 273 279 284 286 284 284 287 288 288 287 282 279 281
176 212 264 252 187 209 244 223 248 312 144 155 168 239 235 228 259 288 297 301 303 304 305 303 301 303 302 299 294 290 295 300 302 302 302 303 305 305 303 302 298 293 292 290 288 290 287 273 264 264 267 265 256 251 245 241 243 240 237 249 259 258 253 254 254 253 256 256 253 255 259 265 272 278 281 285 286 283 282 284 286 286 284 278 272 273
189 199 279 302 224 223 254 259 273 305 223 188 209 250 259 258 270 284 291 295 300 302 302 301 302 304 303 298 293 294 299 302 302 303 304 304 306 307 305 303 299 294 292 290 288 291 289 277 266 263 268 267 260 254 247 242 239 238 244 257 265 260 253 252 253 255 257 257 256 259 265 270 275 279 282 285 284 279 277 278 278 277 276 271 266 267
216 200 239 298 259 261 267 263 263 272 271 255 243 247 262 274 284 290 294 298 301 302 302 303 303 303 303 301 299 299 302 304 304 305 307 307 307 307 307 304 300 296 294 293 294 296 290 278 268 266 270 270 265 261 256 246 237 241 254 264 265 257 251 253 256 260 262 262 263 266 270 273 276 278 282 284 282 277 274 271 267 265 265 263 262 265
218 188 212 249 263 281 274 259 253 260 270 276 277 276 280 287 294 300 302 304 306 305 303 301 299 300 303 306 305 303 304 307 308 308 310 311 308 308 309 306 301 298 298 298 300 298 290 277 269 269 271 270 268 267 263 252 245 252 261 264 259 255 255 255 258 262 265 265 266 268 268 268 270 272 275 277 274 270 268 264 260 261 262 261 262 266
172 134 230 248 248 252 264 276 284 279 273 275 279 284 292 297 302 307 309 307 306 300 294 294 299 304 309 310 310 308 307 310 312 311 311 313 311 310 309 304 300 299 299 299 299 296 286 274 271 272 274 273 270 269 266 258 253 258 264 264 264 263 262 261 261 263 265 266 266 264 261 262 266 269 268 267 262 259 261 262 260 260 260 258 259 263
97 161 253 259 260 260 266 279 289 288 282 285 293 301 308 311 310 311 312 309 303 297 297 302 308 312 313 311 312 312 310 311 314 315 314 313 313 311 307 301 299 300 301 303 303 297 286 277 275 277 278 277 274 272 269 263 260 265 271 275 275 269 265 265 267 268 269 268 263 259 259 261 264 265 263 262 260 258 261 265 264 263 267 270 270 269
144 243 255 260 269 272 276 289 303 307 301 302 309 313 317 324 322 316 314 313 309 310 314 316 316 317 315 314 316 315 311 311 314 314 313 312 312 311 307 303 303 306 308 309 306 298 289 283 281 281 280 279 278 275 271 269 272 276 280 284 282 276 272 272 270 269 270 266 258 256 257 258 259 259 258 261 264 264 267 271 270 267 270 276 278 274
208 248 255 253 266 277 287 296 305 305 295 298 310 317 323 329 324 316 316 318 318 322 325 323 321 320 318 317 317 315 312 312 315 315 312 310 312 312 309 306 308 312 311 309 304 297 291 287 285 285 284 281 280 278 274 277 282 284 286 288 286 281 279 277 271 265 265 261 257 258 259 255 256 259 260 263 267 268 271 276 277 275 274 276 277 276